Vorticity
7 8 11 6 2 2 6 7 5 6 5 4 5 6 7 10 11 8 4 3 4 4 4 5 5 4 3 3 4 5 6 8 8 8 8 8 8 8 8 9 9 9 8 8 8 9 9 8 8 8 8 8 8 7 7 8 8 8 8 8 7 7 8 8 8 8 8 8 8 9 9 9 9 9 8 9 10 9 10 11 9 8 8 8 8 9 9 9
8 5 8 5 3 7 8 6 4 4 4 4 6 7 8 10 8 3 3 5 4 4 4 4 5 5 5 6 6 8 8 9 8 9 9 9 9 8 8 8 7 8 7 8 8 8 7 6 6 6 6 7 6 6 7 8 8 8 8 8 7 8 9 8 8 9 9 10 9 9 9 9 8 8 8 9 9 10 11 9 7 9 10 10 10 11 11 11
7 14 14 5 4 10 7 5 5 3 5 7 8 7 8 7 4 4 5 5 4 4 5 5 6 7 7 8 9 10 10 10 10 10 10 9 8 7 7 7 7 8 8 8 7 6 5 5 6 6 7 7 7 7 7 8 8 8 8 9 9 9 9 9 9 10 10 9 9 9 8 8 8 7 8 7 6 7 6 4 5 7 6 6 7 7 7 7
4 13 12 5 3 7 6 6 4 4 7 8 8 5 5 5 5 6 5 5 5 5 6 6 7 8 8 9 9 10 10 10 9 8 8 8 7 7 8 8 8 7 7 6 6 7 7 7 7 7 7 7 8 7 7 8 8 8 9 9 9 9 8 8 8 7 7 6 6 6 5 5 5 5 5 4 4 3 1 2 4 4 3 4 4 4 3 3
3 1 -1 1 6 6 6 7 6 5 6 5 4 2 3 6 7 6 5 5 6 6 7 8 9 9 9 9 8 8 8 7 7 7 7 8 8 8 9 8 8 7 7 7 8 8 8 8 8 7 8 8 8 7 8 8 8 8 8 7 6 6 6 5 5 4 4 3 3 3 4 4 4 4 3 3 4 2 2 4 4 4 4 5 5 5 5 5
5 1 -2 0 4 5 6 7 7 6 6 4 1 2 5 6 7 5 6 6 7 9 10 10 10 10 8 8 8 8 8 7 8 9 9 9 9 8 8 8 8 8 8 8 8 8 8 8 8 8 8 8 8 7 7 7 7 6 6 6 5 5 4 4 3 2 2 3 4 4 4 3 3 3 3 5 5 3 4 5 6 6 6 6 6 7 7 7
5 3 3 3 4 3 4 6 8 9 6 3 1 5 7 7 7 6 8 9 10 11 10 10 8 7 7 8 8 7 8 7 8 8 7 8 7 7 7 8 8 8 8 8 8 8 8 8 8 8 7 7 7 6 6 5 5 5 4 4 4 3 3 3 3 4 4 4 4 4 4 5 4 5 7 7 5 6 8 8 8 8 8 8 9 9 10 11
6 5 2 5 9 3 4 8 10 8 4 4 6 9 9 8 9 10 11 10 8 7 6 6 6 7 7 7 7 6 6 6 6 6 6 7 7 7 8 8 9 8 8 8 8 8 8 8 7 6 6 5 5 4 4 4 4 4 3 3 3 4 4 4 5 4 4 4 5 6 8 9 8 8 9 7 8 10 11 11 12 12 12 12 12 12 12 12
9 11 9 14 19 8 6 9 8 7 6 9 10 8 7 8 9 8 7 6 5 5 5 6 7 7 7 6 7 6 6 6 6 6 7 7 8 8 8 9 9 8 8 8 8 8 7 6 5 4 4 4 4 4 4 4 4 4 4 5 5 6 6 6 7 7 8 8 8 10 11 10 9 10 11 12 15 17 17 18 18 18 18 17 17 16 16 16
13 18 17 17 16 8 6 7 7 8 9 9 7 7 7 6 5 4 5 5 5 6 6 7 7 6 6 6 6 7 6 6 8 8 8 8 8 9 9 9 8 8 8 7 6 5 4 3 3 3 3 4 5 5 5 5 6 6 7 8 8 9 9 10 9 10 10 11 13 14 14 16 18 21 23 23 24 23 23 23 21 21 20 20 20 20 20 20
11 13 11 9 8 7 7 7 8 8 7 8 8 8 7 5 5 5 6 6 7 7 6 6 6 5 6 6 7 7 7 9 9 8 9 9 9 9 8 8 7 6 6 5 4 3 3 3 4 5 5 6 7 7 8 8 9 9 10 10 10 9 10 11 13 17 19 21 25 25 25 25 25 26 25 21 20 19 18 17 15 14 13 13 14 14 14 14
7 7 6 9 9 8 8 8 10 9 10 9 8 7 5 5 6 6 6 6 7 6 6 6 6 6 7 7 7 8 9 10 9 8 9 9 8 7 7 6 5 5 4 4 4 4 5 6 7 8 8 9 9 10 10 10 10 10 11 12 13 16 19 22 24 25 24 23 22 21 20 17 12 11 10 8 8 8 8 7 6 5 5 5 6 7 7 6
8 8 9 11 9 8 9 10 11 9 8 7 6 6 6 6 5 6 6 7 7 6 6 6 6 7 7 7 8 8 9 9 8 8 8 6 6 6 5 5 5 6 5 6 6 7 8 9 9 10 10 12 12 14 14 16 19 20 22 23 24 25 25 23 18 15 12 10 8 6 5 3 3 3 2 2 3 4 4 3 3 3 3 4 4 4 4 3
9 8 9 8 6 8 9 9 8 5 5 5 6 6 5 6 6 7 7 7 7 6 6 6 7 7 7 8 8 8 8 7 8 6 5 6 5 5 6 6 6 7 7 7 8 9 10 10 11 12 13 16 17 20 23 25 26 25 24 21 18 14 10 7 5 6 4 3 4 3 1 0 3 3 2 3 3 3 3 3 4 4 4 4 4 4 4 3
9 8 8 8 8 10 8 6 4 4 5 4 5 5 5 6 6 7 6 6 7 6 6 7 8 8 8 8 7 8 7 6 7 5 5 5 5 6 6 7 7 8 8 9 10 10 11 11 12 14 16 18 19 20 19 18 15 11 9 6 5 3 2 2 3 4 2 3 4 2 2 1 1 1 1 1 0 -0 0 1 2 1 2 2 2 3 3 4
10 10 9 10 10 8 5 4 4 4 4 3 4 4 4 6 6 6 6 6 7 6 7 8 9 8 8 7 7 8 6 6 6 5 6 5 6 7 7 8 8 8 9 9 10 10 11 12 13 14 14 14 13 10 7 5 2 1 1 1 1 2 2 2 2 2 1 2 3 1 1 0 -0 2 2 1 2 4 4 5 5 4 4 5 5 6 5 5
11 11 10 10 8 6 4 4 4 4 4 4 4 3 4 5 5 6 6 6 6 7 9 8 7 8 7 7 8 8 5 6 6 5 5 5 7 8 7 9 8 9 10 9 10 10 11 11 11 12 10 8 7 4 3 2 2 2 3 2 1 1 2 2 2 3 3 3 4 7 8 7 10 14 14 14 15 16 15 15 16 16 16 15 15 14 13 12
10 11 10 9 7 6 4 4 4 4 5 4 4 3 4 5 5 6 6 7 7 8 9 7 7 8 7 6 6 5 4 6 6 5 5 7 8 8 8 8 9 10 9 9 10 9 10 9 8 9 7 6 5 3 3 2 3 3 3 3 3 3 3 5 6 8 11 13 14 17 16 15 18 19 20 18 17 17 16 17 17 16 17 18 18 17 17 17
8 10 9 9 7 7 6 5 6 5 5 5 4 4 4 5 6 6 6 7 8 8 8 7 8 7 6 6 5 4 6 6 5 5 6 8 9 7 8 9 9 10 9 9 9 8 8 8 7 7 5 5 4 4 4 4 5 6 6 8 10 11 11 12 14 13 14 15 15 14 13 12 12 12 12 12 11 11 11 11 10 10 11 12 12 12 12 12
7 8 8 9 8 7 7 6 6 5 6 6 5 4 4 5 6 6 7 8 9 8 7 7 7 6 5 5 5 6 7 5 5 5 7 8 8 8 8 9 9 9 9 9 8 9 9 8 7 7 7 8 8 8 10 11 12 13 13 13 14 15 14 13 13 12 10 10 9 10 11 10 9 8 9 9 9 8 8 8 9 10 10 9 8 8 9 9
6 7 8 9 8 7 7 6 6 6 6 7 5 4 4 5 5 6 7 9 9 8 7 7 6 6 4 5 6 7 6 5 5 6 8 8 8 9 9 9 10 10 10 10 10 11 9 9 10 11 11 11 12 12 12 13 13 12 12 11 11 11 11 10 9 9 8 7 8 9 12 11 9 9 10 9 8 7 7 8 9 10 9 8 7 6 7 8
6 7 7 8 9 8 7 6 7 6 6 6 4 4 4 5 5 6 9 10 9 7 7 7 6 5 4 6 8 7 5 4 5 8 9 8 9 10 10 11 11 11 12 12 12 12 11 11 12 11 11 11 10 10 9 9 8 8 8 8 8 9 9 10 9 9 7 7 8 8 10 11 9 8 8 7 7 8 7 8 9 9 7 7 6 5 7 9
6 7 8 9 9 8 8 7 6 5 5 5 4 4 5 5 6 9 10 10 9 7 6 6 6 6 5 6 8 6 4 3 7 9 8 9 11 11 12 13 12 13 13 12 11 10 10 10 9 8 8 7 7 7 7 7 6 7 6 6 7 7 8 8 8 9 7 7 7 5 9 13 10 8 8 6 7 9 10 11 9 7 6 6 6 6 7 9
7 7 9 10 9 9 8 7 5 5 5 4 4 4 4 5 7 10 10 9 8 5 5 5 7 7 5 7 8 5 3 4 8 9 8 12 12 13 14 12 12 12 10 9 9 7 7 7 6 7 6 5 6 6 6 6 5 5 5 5 5 6 7 7 7 7 7 9 8 5 6 9 7 7 8 6 7 10 11 11 9 7 6 6 6 5 5 7
7 6 8 10 10 10 8 6 6 6 5 4 5 5 4 6 9 10 10 10 6 4 6 6 7 7 6 7 6 2 3 6 8 9 12 14 13 13 13 10 9 9 7 8 6 5 6 5 5 6 5 4 5 5 5 4 4 4 4 4 4 5 6 7 8 6 6 8 9 8 7 5 2 5 7 3 5 12 10 7 6 6 7 6 6 6 6 5
6 7 8 9 10 12 9 7 7 5 4 5 5 4 4 7 9 9 10 8 4 6 8 7 6 6 7 6 3 2 5 6 9 13 14 13 13 12 9 8 8 6 6 7 4 4 6 4 5 6 5 5 4 4 4 4 4 4 4 4 4 4 5 6 6 6 7 7 7 8 10 8 0 1 6 3 5 9 7 5 5 5 6 5 5 6 5 4
6 7 7 7 11 13 11 8 6 5 5 5 4 4 5 7 9 10 10 8 7 8 9 7 6 5 7 6 3 4 5 7 12 13 13 13 12 9 7 6 6 5 5 6 4 5 5 4 5 5 5 5 4 4 5 3 3 4 3 3 4 4 5 5 5 7 8 7 7 7 8 9 3 3 7 6 8 7 3 5 6 4 5 4 5 5 5 4
5 8 6 7 9 11 12 10 7 6 5 4 4 6 6 7 9 10 10 8 6 7 7 6 4 5 7 5 4 4 5 10 13 11 12 13 9 6 6 5 4 4 4 4 4 3 5 4 4 5 4 4 4 3 4 4 3 3 4 3 3 4 4 4 5 8 8 6 8 8 6 6 6 8 11 10 9 7 5 7 7 6 7 7 7 6 6 5
4 8 7 6 8 11 12 10 8 7 5 5 6 6 6 7 9 10 9 7 5 6 5 5 6 7 6 4 3 4 6 10 11 11 13 11 7 6 5 4 4 4 4 5 4 4 6 4 3 5 3 3 4 2 2 4 3 3 4 3 3 4 3 3 6 7 6 6 8 6 5 5 6 10 12 9 7 7 6 7 6 7 8 8 8 7 5 5
2 6 7 6 7 10 11 9 8 8 6 6 6 5 6 7 10 11 9 6 7 7 4 5 8 7 4 4 4 4 6 8 11 13 11 8 8 6 5 5 5 4 5 6 4 3 5 3 3 3 2 3 3 2 3 2 1 4 4 2 4 4 2 4 7 6 5 7 7 4 5 6 7 11 9 4 5 7 7 6 6 8 9 8 7 6 6 8
0 2 4 6 6 8 10 9 8 8 7 6 6 6 6 8 11 12 8 4 5 6 4 6 8 6 4 5 4 4 6 8 10 11 10 8 8 6 5 6 5 4 5 5 3 3 4 3 2 3 2 3 3 2 3 1 2 3 3 4 3 3 3 5 6 5 6 7 5 5 6 7 10 11 5 3 7 10 8 7 8 8 6 6 6 7 9 10
2 -1 -0 3 6 7 8 9 9 7 6 7 6 6 7 9 11 11 7 3 5 7 7 6 5 5 5 5 5 4 5 8 9 10 9 7 6 5 5 5 5 4 5 5 3 3 4 2 2 3 2 3 3 2 2 2 2 3 4 5 2 2 5 5 5 6 7 6 5 7 8 8 11 8 4 6 9 8 8 9 8 6 5 7 9 9 9 8
5 2 -1 -1 3 6 7 8 8 7 7 7 7 6 8 11 11 9 7 5 6 6 5 4 4 5 6 5 5 4 5 7 7 8 7 6 7 5 4 5 5 4 5 5 4 3 2 2 3 3 2 3 3 2 3 2 2 5 5 3 3 7 4 1 5 7 5 6 7 8 9 9 9 7 6 8 9 8 8 8 6 5 8 9 9 9 9 10
5 5 3 1 1 4 6 8 7 7 8 6 6 7 8 11 10 9 9 7 6 6 5 5 5 6 6 5 5 4 5 6 6 6 5 5 6 4 4 6 4 4 5 3 4 3 1 3 3 2 2 3 2 3 3 1 3 6 3 3 7 8 2 1 6 5 4 7 9 10 9 8 8 8 8 9 9 8 7 6 6 6 8 9 10 11 11 11
3 5 6 5 3 2 5 7 7 7 7 6 7 7 8 10 10 10 9 7 7 6 5 4 5 6 6 5 5 4 4 5 5 5 4 5 5 3 5 5 3 5 5 3 3 2 2 3 2 2 3 2 3 4 3 3 5 3 3 7 7 5 5 5 5 5 5 6 8 9 7 8 10 9 9 10 8 8 7 7 7 8 10 12 13 12 10 8
2 3 4 5 3 1 3 7 7 7 7 7 7 7 8 10 11 10 7 7 7 5 4 5 5 7 6 5 5 3 3 4 4 4 5 5 4 4 5 5 4 5 4 3 2 1 3 3 1 2 2 3 4 4 4 5 4 2 5 8 4 4 9 7 3 6 8 5 5 7 7 9 11 10 10 9 8 9 9 7 8 12 14 13 10 8 6 5
3 3 3 4 3 1 2 7 9 8 7 8 7 7 9 10 10 9 7 7 7 5 6 6 5 6 6 5 5 3 3 4 5 5 5 4 4 5 5 4 5 5 4 3 2 2 2 1 2 2 1 3 4 3 5 5 3 5 7 6 5 5 8 8 5 7 9 5 3 6 7 9 13 12 9 10 12 12 9 9 13 15 12 8 6 5 5 5
3 3 3 4 3 1 1 5 9 9 8 8 8 7 9 11 10 9 8 7 6 6 6 5 5 6 6 6 5 3 4 5 5 4 4 5 5 4 4 4 5 5 3 2 2 2 1 -0 2 1 1 4 4 3 4 3 4 6 6 7 7 6 6 7 7 8 11 7 3 4 6 11 15 11 8 14 16 12 10 14 15 11 7 5 6 6 6 7
3 3 3 4 3 1 1 4 7 9 9 8 8 8 10 11 10 9 8 6 6 6 6 5 6 5 6 6 5 4 5 5 4 4 4 6 5 4 5 5 4 3 2 2 2 1 0 0 1 1 3 5 4 3 2 3 5 5 7 8 6 7 8 5 8 13 12 7 3 1 4 13 14 9 14 18 12 9 12 12 9 5 6 6 6 6 7 7
4 5 5 5 3 1 2 4 6 8 9 9 8 8 10 10 10 10 8 6 6 6 6 6 5 5 6 6 5 5 5 5 5 5 5 6 5 5 5 4 3 3 3 2 1 1 1 1 0 2 4 5 4 3 2 4 5 5 9 9 7 9 7 5 10 14 11 7 4 1 2 10 12 14 21 17 8 10 12 7 6 6 6 6 6 7 6 4
4 6 6 5 2 1 2 4 5 6 8 8 8 8 10 11 11 10 7 6 6 6 6 6 5 6 6 5 5 5 5 6 5 4 5 6 5 5 4 4 3 3 2 1 1 1 1 1 1 3 5 5 4 3 3 4 5 6 8 8 9 9 8 10 10 10 11 6 5 7 0 4 21 25 18 10 8 10 8 5 7 7 6 7 7 6 4 4
3 3 3 3 2 3 5 7 6 6 6 7 7 8 10 12 12 10 8 7 6 6 6 6 6 5 5 6 6 5 5 6 5 4 5 5 5 5 4 4 3 1 1 1 1 1 2 2 2 3 5 5 3 4 4 4 5 7 8 10 12 10 12 14 7 6 10 4 10 14 -5 3 33 28 8 7 9 7 6 6 7 6 6 7 6 5 5 5
2 2 3 6 7 9 12 13 11 9 7 6 6 8 9 11 11 10 9 7 6 6 6 6 5 4 5 6 5 6 5 5 6 6 5 5 5 5 4 4 2 1 1 1 1 2 2 2 2 2 4 3 3 4 4 4 6 7 10 13 13 12 12 10 5 7 6 6 19 13 -8 12 34 14 1 9 8 5 7 6 6 6 7 7 6 5 5 5
5 5 8 11 14 16 18 17 16 13 10 7 7 8 9 11 11 9 8 7 6 6 6 7 6 5 6 5 6 7 5 3 6 6 5 5 5 4 3 4 3 2 2 2 2 3 1 3 4 2 2 2 3 5 4 4 6 7 12 15 14 12 9 6 8 8 4 10 18 5 0 21 21 1 4 11 5 6 7 5 7 7 6 7 6 5 6 5
9 10 12 14 15 17 18 18 17 15 13 10 8 8 10 12 11 9 7 6 5 6 7 7 6 5 6 6 6 6 5 4 4 4 5 4 3 3 4 4 3 2 3 3 3 3 2 4 4 3 2 3 5 7 6 5 7 11 17 18 14 10 7 9 9 6 9 12 9 9 17 17 6 3 10 9 5 7 6 6 8 7 6 7 5 5 6 4
11 12 14 14 15 16 16 16 16 15 13 10 8 9 10 11 11 9 7 6 6 7 8 8 6 6 6 5 5 6 5 5 3 3 4 3 3 4 3 2 3 2 2 3 3 3 2 3 4 3 2 4 8 8 5 5 11 16 18 15 11 9 9 10 6 8 18 11 3 18 23 5 2 11 8 4 6 6 5 7 7 7 7 6 5 6 5 3
11 11 12 12 12 12 13 14 14 13 11 9 9 10 11 11 10 9 7 6 7 8 8 8 7 6 5 4 5 6 6 5 4 3 3 4 4 4 2 3 2 1 3 3 3 3 2 3 4 3 2 7 9 7 6 10 14 16 14 11 10 9 8 7 7 16 23 8 2 17 13 -1 7 12 4 4 6 4 6 8 6 7 7 5 6 5 4 4
10 10 10 10 9 9 10 11 11 11 10 9 10 11 11 11 10 9 7 6 7 7 7 9 8 4 4 5 5 6 6 5 4 2 3 5 4 3 3 3 2 2 3 3 3 4 3 2 3 3 4 7 9 9 12 14 12 11 10 10 11 12 8 8 15 22 17 4 5 13 5 3 11 10 4 6 5 5 8 6 6 8 7 6 7 5 5 5
9 9 9 9 8 8 9 9 9 10 10 10 11 11 11 10 9 8 7 7 7 7 7 9 8 4 5 6 5 6 6 4 2 3 4 4 3 3 4 3 3 3 3 3 4 4 2 2 5 5 3 5 13 17 15 11 8 7 10 13 15 12 9 12 17 17 9 4 9 8 3 7 11 6 5 6 5 7 7 5 7 8 7 8 7 6 7 5
8 9 8 8 8 8 7 8 8 9 10 10 11 11 11 11 10 9 8 7 6 7 8 9 7 5 5 4 4 6 5 2 2 4 4 3 3 4 3 3 4 3 3 4 3 3 4 4 7 6 1 8 21 19 11 8 6 5 12 18 15 10 11 15 15 12 8 7 7 4 4 9 9 5 5 6 6 6 5 6 8 8 8 9 7 6 6 3
8 8 8 8 8 8 7 7 8 9 9 10 11 11 11 11 11 9 8 7 6 7 8 8 8 7 5 4 5 6 4 2 4 4 3 3 4 4 4 4 3 3 4 4 3 5 6 6 8 7 4 14 22 14 8 7 3 7 18 18 10 11 15 15 12 10 8 5 4 5 8 9 7 4 6 7 5 5 6 7 8 7 7 6 6 7 5 5
8 8 9 8 8 8 8 8 8 8 9 9 11 12 11 10 10 8 7 7 7 8 7 8 8 7 6 5 5 4 4 4 5 3 3 4 4 4 4 4 3 4 4 4 5 7 8 7 10 10 10 15 16 10 8 6 4 11 17 11 10 18 18 12 10 9 6 4 5 8 9 7 5 5 6 5 5 6 6 6 7 8 7 5 6 7 6 6
Height
5774 5777 5779 5780 5781 5783 5784 5786 5787 5789 5790 5791 5792 5793 5794 5794 5795 5795 5795 5796 5796 5796 5796 5797 5796 5796 5796 5796 5796 5796 5796 5796 5796 5795 5794 5794 5794 5793 5792 5792 5791 5791 5790 5789 5789 5788 5787 5786 5786 5785 5784 5783 5782 5781 5780 5779 5778 5778 5777 5776 5775 5774 5774 5773 5772 5771 5771 5770 5769 5769 5768 5767 5767 5766 5766 5766 5765 5764 5764 5763 5761 5760 5759 5758 5758 5758 5757 5757
5774 5776 5777 5780 5781 5782 5784 5786 5787 5789 5790 5791 5792 5792 5793 5794 5794 5795 5795 5795 5795 5795 5795 5795 5795 5795 5795 5795 5795 5795 5795 5795 5794 5794 5793 5793 5792 5792 5791 5791 5790 5790 5789 5788 5787 5786 5785 5784 5784 5783 5782 5781 5780 5779 5778 5777 5777 5776 5775 5774 5773 5772 5771 5770 5770 5769 5769 5768 5767 5766 5766 5765 5764 5763 5763 5763 5762 5761 5761 5759 5757 5757 5756 5756 5755 5754 5754 5754
5774 5775 5776 5779 5781 5782 5784 5786 5787 5789 5790 5791 5791 5792 5793 5793 5794 5794 5794 5794 5794 5794 5794 5794 5794 5794 5794 5794 5794 5794 5794 5793 5793 5793 5792 5792 5791 5790 5790 5790 5789 5788 5788 5787 5786 5785 5783 5782 5782 5781 5780 5779 5778 5777 5776 5775 5774 5774 5773 5772 5771 5770 5769 5768 5768 5767 5766 5765 5765 5764 5763 5762 5761 5760 5760 5759 5759 5758 5756 5754 5754 5754 5754 5753 5752 5751 5750 5750
5774 5775 5776 5779 5781 5783 5784 5786 5787 5788 5789 5790 5791 5792 5792 5793 5793 5793 5793 5793 5793 5793 5793 5793 5793 5793 5793 5793 5793 5793 5792 5792 5792 5791 5791 5791 5790 5789 5789 5789 5788 5787 5786 5785 5784 5783 5782 5781 5780 5779 5779 5778 5777 5775 5774 5773 5773 5772 5771 5770 5769 5768 5767 5766 5765 5765 5764 5763 5762 5761 5761 5760 5759 5758 5757 5756 5756 5755 5752 5751 5751 5751 5751 5750 5749 5748 5747 5747
5774 5775 5777 5779 5781 5783 5784 5786 5787 5787 5788 5789 5790 5791 5792 5792 5792 5792 5792 5792 5792 5792 5792 5792 5792 5792 5792 5792 5792 5792 5792 5791 5791 5791 5790 5790 5789 5789 5788 5788 5787 5786 5785 5784 5783 5782 5781 5780 5779 5777 5777 5776 5775 5774 5773 5772 5771 5770 5769 5768 5767 5766 5765 5764 5763 5762 5761 5761 5760 5759 5758 5758 5757 5756 5755 5754 5753 5751 5749 5749 5749 5748 5747 5746 5745 5744 5743 5743
5774 5775 5777 5779 5781 5783 5784 5785 5786 5787 5788 5789 5790 5791 5791 5791 5791 5791 5791 5791 5791 5792 5792 5792 5792 5792 5792 5792 5792 5791 5791 5791 5791 5790 5790 5789 5789 5788 5787 5786 5786 5784 5783 5783 5781 5780 5779 5778 5777 5776 5775 5774 5773 5772 5771 5770 5770 5769 5768 5766 5765 5764 5763 5762 5761 5760 5759 5758 5757 5757 5756 5755 5754 5754 5752 5751 5749 5747 5747 5747 5746 5744 5743 5743 5742 5740 5739 5739
5774 5776 5777 5779 5781 5783 5784 5785 5786 5787 5788 5789 5790 5790 5790 5790 5790 5790 5790 5791 5791 5791 5792 5792 5792 5792 5791 5791 5791 5791 5790 5790 5790 5789 5789 5788 5788 5787 5786 5785 5784 5783 5782 5781 5780 5779 5778 5777 5775 5774 5773 5772 5771 5770 5769 5769 5768 5767 5766 5765 5763 5762 5761 5760 5759 5758 5757 5756 5755 5754 5753 5752 5751 5750 5749 5747 5745 5744 5745 5744 5742 5741 5740 5738 5737 5736 5735 5734
5775 5777 5778 5780 5781 5783 5784 5785 5786 5787 5788 5789 5789 5789 5789 5790 5790 5790 5790 5791 5791 5791 5791 5791 5791 5791 5791 5791 5791 5790 5790 5789 5789 5788 5788 5787 5786 5785 5784 5783 5782 5781 5780 5779 5778 5777 5776 5775 5774 5773 5772 5771 5770 5769 5768 5767 5766 5765 5764 5763 5761 5760 5759 5757 5756 5755 5754 5752 5751 5751 5749 5748 5747 5746 5745 5743 5742 5741 5741 5740 5738 5737 5736 5734 5733 5732 5731 5730
5776 5777 5779 5780 5781 5783 5784 5785 5786 5787 5787 5788 5788 5789 5789 5789 5790 5790 5790 5791 5791 5791 5791 5791 5791 5791 5791 5790 5790 5790 5789 5789 5788 5787 5786 5785 5785 5784 5783 5782 5781 5780 5779 5778 5777 5776 5774 5773 5772 5771 5770 5769 5768 5767 5766 5765 5764 5763 5761 5760 5759 5758 5756 5755 5754 5752 5751 5750 5749 5748 5746 5744 5743 5742 5741 5739 5739 5738 5736 5735 5734 5733 5732 5730 5729 5728 5727 5726
5776 5777 5779 5780 5781 5783 5784 5785 5785 5786 5787 5787 5788 5789 5789 5789 5790 5790 5790 5790 5790 5791 5791 5791 5790 5790 5790 5790 5789 5789 5788 5788 5787 5786 5785 5784 5783 5783 5782 5781 5780 5778 5777 5776 5775 5774 5773 5772 5771 5770 5769 5768 5766 5765 5764 5763 5761 5760 5759 5757 5756 5755 5754 5752 5751 5750 5749 5747 5746 5745 5743 5740 5739 5738 5738 5736 5735 5734 5733 5732 5730 5729 5728 5727 5726 5725 5724 5723
5777 5778 5779 5780 5781 5783 5784 5785 5785 5786 5787 5787 5788 5789 5789 5789 5789 5790 5790 5790 5790 5790 5790 5790 5790 5789 5789 5789 5788 5788 5787 5787 5786 5785 5784 5783 5782 5781 5781 5780 5779 5777 5776 5775 5774 5773 5772 5770 5769 5768 5767 5766 5764 5763 5762 5760 5758 5757 5756 5754 5753 5752 5751 5749 5748 5747 5746 5744 5743 5742 5740 5738 5737 5736 5735 5734 5733 5732 5731 5729 5727 5726 5725 5724 5723 5722 5721 5720
5777 5778 5779 5780 5782 5783 5784 5785 5785 5786 5787 5788 5788 5789 5789 5789 5789 5789 5789 5790 5790 5790 5789 5789 5789 5788 5788 5788 5787 5787 5786 5786 5785 5784 5783 5782 5781 5780 5780 5779 5777 5776 5775 5774 5773 5771 5770 5769 5768 5766 5765 5763 5762 5760 5759 5757 5756 5754 5753 5751 5750 5749 5748 5747 5746 5744 5743 5742 5741 5740 5738 5736 5735 5734 5734 5733 5732 5730 5728 5727 5725 5724 5723 5722 5720 5719 5718 5717
5777 5779 5780 5781 5782 5783 5784 5785 5786 5786 5787 5788 5789 5789 5789 5789 5789 5789 5789 5789 5789 5789 5789 5789 5788 5788 5787 5787 5786 5786 5785 5784 5784 5783 5782 5781 5780 5779 5778 5777 5776 5775 5774 5772 5771 5770 5769 5767 5766 5764 5763 5761 5759 5758 5756 5755 5753 5752 5751 5749 5748 5747 5746 5745 5744 5743 5741 5740 5739 5738 5737 5735 5734 5733 5732 5731 5730 5728 5726 5724 5723 5722 5720 5719 5718 5716 5715 5714
5779 5780 5781 5782 5783 5784 5784 5785 5786 5787 5788 5788 5788 5789 5789 5789 5789 5789 5789 5789 5789 5789 5788 5788 5787 5787 5786 5786 5785 5785 5784 5783 5783 5782 5781 5780 5779 5778 5777 5776 5775 5774 5772 5771 5770 5768 5767 5766 5764 5762 5761 5759 5757 5755 5754 5753 5751 5750 5749 5748 5747 5746 5745 5744 5743 5742 5740 5739 5738 5737 5735 5734 5732 5731 5730 5729 5727 5726 5724 5722 5721 5719 5718 5716 5715 5714 5712 5711
5779 5781 5781 5782 5783 5784 5784 5785 5786 5787 5788 5788 5788 5788 5788 5789 5789 5789 5789 5789 5789 5788 5788 5787 5786 5786 5785 5785 5785 5784 5783 5783 5782 5781 5780 5779 5778 5777 5776 5775 5773 5772 5771 5769 5768 5767 5765 5764 5762 5760 5759 5757 5755 5754 5753 5752 5751 5750 5748 5748 5747 5745 5744 5743 5742 5740 5739 5737 5736 5735 5733 5732 5731 5729 5728 5727 5725 5724 5722 5720 5718 5716 5715 5713 5712 5710 5709 5708
5780 5781 5782 5783 5783 5784 5785 5786 5787 5787 5788 5788 5788 5788 5788 5789 5789 5788 5788 5788 5788 5787 5787 5786 5786 5785 5785 5784 5784 5783 5783 5782 5781 5780 5779 5778 5777 5776 5774 5773 5772 5770 5769 5768 5766 5765 5763 5762 5760 5759 5757 5756 5755 5753 5752 5751 5750 5749 5748 5747 5746 5744 5743 5742 5741 5739 5738 5736 5734 5733 5732 5730 5729 5728 5726 5724 5722 5720 5718 5716 5715 5713 5711 5710 5708 5707 5705 5704
5780 5781 5782 5783 5783 5784 5785 5786 5787 5788 5788 5788 5788 5788 5788 5788 5788 5788 5788 5787 5787 5786 5785 5785 5785 5784 5784 5784 5783 5783 5782 5781 5780 5779 5778 5777 5776 5774 5773 5772 5771 5769 5768 5766 5765 5763 5762 5760 5759 5758 5757 5755 5754 5753 5751 5750 5749 5748 5747 5746 5745 5743 5742 5741 5739 5737 5736 5734 5732 5731 5729 5727 5726 5724 5723 5721 5718 5716 5714 5713 5711 5710 5708 5706 5704 5703 5701 5700
5781 5781 5782 5783 5784 5785 5786 5787 5787 5788 5788 5788 5788 5788 5788 5788 5788 5787 5787 5786 5785 5785 5785 5784 5784 5784 5783 5783 5782 5782 5781 5780 5779 5778 5777 5776 5774 5773 5772 5771 5769 5768 5766 5765 5763 5762 5760 5759 5758 5757 5756 5754 5753 5751 5750 5749 5748 5747 5746 5744 5743 5742 5740 5739 5737 5736 5734 5732 5730 5728 5726 5724 5723 5721 5719 5717 5715 5713 5711 5709 5708 5706 5705 5703 5701 5699 5697 5696
5781 5782 5782 5783 5784 5785 5786 5787 5788 5788 5788 5788 5788 5788 5788 5787 5787 5786 5786 5785 5785 5784 5784 5784 5783 5783 5783 5782 5781 5780 5780 5779 5778 5777 5776 5774 5773 5772 5770 5769 5768 5766 5765 5763 5762 5761 5759 5758 5757 5755 5754 5752 5751 5750 5749 5748 5746 5745 5744 5743 5741 5739 5738 5736 5735 5733 5732 5730 5728 5726 5723 5722 5721 5719 5717 5714 5712 5710 5708 5707 5705 5703 5702 5700 5698 5696 5694 5693
5782 5783 5783 5784 5785 5786 5787 5787 5788 5788 5788 5788 5788 5788 5787 5787 5786 5786 5785 5785 5784 5784 5784 5783 5783 5782 5782 5781 5780 5779 5779 5778 5777 5776 5774 5773 5772 5770 5769 5768 5766 5765 5763 5762 5761 5759 5758 5756 5755 5753 5752 5751 5750 5749 5747 5746 5745 5744 5742 5741 5740 5738 5736 5735 5733 5731 5730 5728 5727 5725 5722 5719 5718 5716 5714 5712 5709 5708 5706 5704 5702 5701 5699 5697 5695 5693 5691 5689
5783 5784 5784 5785 5786 5786 5787 5787 5787 5787 5787 5787 5787 5787 5786 5786 5785 5785 5785 5784 5784 5783 5783 5782 5782 5781 5781 5780 5779 5779 5778 5777 5776 5774 5773 5772 5770 5769 5768 5766 5765 5763 5762 5761 5759 5758 5756 5755 5753 5752 5751 5750 5749 5747 5746 5745 5744 5742 5741 5739 5738 5737 5735 5733 5731 5730 5728 5726 5725 5723 5720 5717 5715 5714 5711 5709 5707 5705 5703 5701 5699 5698 5696 5694 5692 5690 5688 5686
5784 5785 5785 5786 5786 5786 5786 5787 5787 5787 5786 5786 5786 5786 5786 5785 5785 5785 5784 5784 5783 5783 5782 5782 5781 5780 5780 5779 5778 5778 5777 5776 5775 5773 5772 5770 5769 5768 5766 5765 5763 5762 5761 5759 5758 5756 5755 5754 5753 5752 5751 5749 5748 5747 5745 5744 5743 5741 5740 5739 5737 5736 5734 5732 5730 5728 5726 5725 5723 5721 5719 5715 5712 5710 5708 5706 5704 5702 5700 5698 5696 5695 5692 5691 5689 5687 5685 5683
5784 5785 5786 5786 5786 5786 5786 5786 5786 5786 5785 5785 5785 5785 5785 5785 5784 5784 5783 5783 5782 5782 5781 5781 5780 5780 5779 5778 5777 5777 5776 5775 5773 5772 5771 5769 5768 5766 5765 5764 5762 5761 5760 5758 5757 5756 5754 5753 5752 5751 5750 5749 5747 5746 5744 5743 5742 5740 5739 5738 5736 5734 5732 5731 5729 5727 5724 5722 5720 5719 5718 5715 5710 5707 5705 5703 5701 5699 5698 5696 5694 5692 5689 5687 5686 5684 5681 5679
5785 5785 5786 5786 5786 5785 5785 5785 5785 5785 5784 5784 5784 5784 5784 5784 5784 5783 5783 5782 5782 5781 5781 5780 5780 5779 5778 5777 5776 5775 5775 5773 5772 5771 5769 5768 5767 5765 5764 5762 5761 5760 5759 5757 5756 5755 5754 5753 5752 5750 5749 5748 5746 5745 5743 5742 5740 5739 5737 5735 5734 5732 5730 5728 5726 5725 5723 5721 5718 5716 5716 5715 5711 5706 5703 5700 5698 5696 5694 5693 5691 5688 5686 5684 5682 5680 5678 5676
5785 5786 5786 5785 5785 5785 5785 5784 5784 5784 5784 5783 5783 5783 5784 5783 5783 5782 5782 5781 5781 5781 5780 5779 5779 5778 5777 5776 5775 5775 5774 5772 5771 5770 5768 5767 5765 5764 5763 5762 5761 5759 5758 5757 5756 5755 5753 5752 5751 5749 5748 5747 5745 5744 5742 5740 5739 5737 5735 5733 5732 5730 5728 5726 5724 5722 5720 5719 5717 5713 5712 5713 5711 5706 5701 5698 5696 5693 5691 5690 5687 5685 5683 5681 5678 5676 5674 5671
5786 5786 5786 5785 5785 5785 5784 5784 5784 5783 5783 5783 5783 5783 5783 5783 5782 5781 5781 5781 5780 5780 5779 5778 5778 5777 5776 5776 5775 5774 5773 5772 5770 5769 5767 5766 5765 5763 5762 5761 5760 5759 5758 5756 5755 5754 5753 5751 5750 5748 5747 5745 5744 5742 5741 5739 5737 5735 5733 5731 5729 5727 5725 5723 5721 5719 5717 5716 5714 5711 5708 5708 5709 5706 5699 5695 5694 5691 5688 5686 5684 5681 5679 5677 5675 5672 5670 5667
5786 5786 5785 5785 5785 5784 5784 5783 5783 5782 5782 5782 5782 5782 5782 5782 5781 5780 5780 5780 5779 5779 5778 5777 5777 5776 5775 5775 5774 5773 5772 5770 5769 5768 5766 5765 5764 5763 5762 5761 5759 5758 5757 5756 5754 5753 5752 5750 5749 5747 5746 5744 5742 5741 5739 5737 5735 5733 5731 5729 5727 5725 5723 5721 5719 5716 5714 5712 5711 5709 5705 5703 5704 5703 5697 5692 5691 5688 5685 5682 5680 5678 5675 5673 5670 5668 5665 5663
5785 5785 5785 5785 5784 5784 5783 5783 5782 5782 5782 5782 5782 5782 5781 5780 5779 5779 5779 5779 5778 5777 5777 5776 5776 5775 5774 5774 5773 5772 5771 5769 5768 5767 5765 5764 5763 5762 5761 5760 5759 5757 5756 5755 5753 5752 5751 5749 5748 5746 5744 5742 5740 5739 5737 5735 5733 5731 5729 5726 5724 5722 5720 5718 5716 5713 5710 5709 5707 5705 5702 5699 5698 5698 5694 5688 5687 5685 5681 5679 5677 5675 5672 5669 5666 5663 5660 5658
5785 5784 5784 5784 5783 5783 5782 5782 5782 5781 5781 5781 5781 5781 5780 5779 5778 5778 5777 5777 5777 5776 5776 5775 5775 5774 5773 5772 5772 5771 5769 5768 5767 5766 5764 5763 5762 5761 5760 5759 5758 5756 5755 5754 5752 5751 5749 5748 5746 5744 5743 5740 5739 5736 5735 5733 5730 5729 5726 5724 5721 5719 5717 5714 5712 5710 5706 5705 5703 5700 5697 5694 5692 5692 5688 5685 5683 5680 5676 5674 5671 5670 5667 5664 5661 5659 5656 5654
5784 5784 5784 5783 5783 5782 5782 5781 5781 5781 5781 5780 5780 5779 5779 5778 5777 5777 5777 5776 5776 5775 5775 5774 5774 5773 5772 5771 5770 5769 5768 5767 5766 5765 5763 5762 5761 5760 5759 5758 5756 5755 5754 5752 5750 5749 5747 5746 5744 5743 5741 5739 5737 5734 5732 5730 5728 5726 5724 5721 5718 5716 5713 5710 5709 5706 5702 5700 5698 5695 5692 5688 5686 5685 5681 5679 5679 5676 5672 5668 5664 5662 5660 5658 5656 5654 5651 5649
5784 5784 5783 5783 5782 5782 5781 5781 5780 5780 5780 5780 5779 5778 5777 5777 5776 5776 5776 5775 5775 5774 5773 5773 5772 5772 5771 5770 5769 5768 5767 5766 5765 5764 5762 5761 5760 5759 5758 5756 5755 5754 5752 5751 5749 5747 5746 5744 5742 5741 5739 5737 5735 5732 5730 5728 5725 5723 5721 5718 5715 5712 5709 5706 5705 5702 5698 5696 5692 5690 5687 5683 5681 5679 5675 5673 5673 5670 5667 5664 5660 5656 5654 5652 5650 5648 5645 5643
5783 5783 5783 5782 5782 5782 5781 5780 5780 5779 5779 5779 5778 5777 5776 5776 5775 5775 5775 5774 5773 5773 5772 5772 5771 5770 5770 5769 5768 5767 5766 5765 5764 5763 5761 5760 5759 5758 5756 5755 5753 5752 5751 5749 5748 5746 5745 5743 5741 5739 5737 5735 5733 5730 5728 5725 5723 5720 5718 5714 5711 5709 5705 5702 5700 5697 5694 5691 5688 5686 5683 5679 5678 5675 5671 5669 5667 5664 5662 5659 5655 5652 5649 5647 5644 5642 5639 5637
5782 5782 5782 5782 5781 5781 5780 5780 5779 5778 5778 5777 5777 5776 5775 5775 5774 5774 5773 5773 5772 5772 5771 5771 5770 5769 5769 5768 5767 5766 5765 5764 5763 5761 5760 5759 5757 5756 5755 5753 5752 5750 5749 5748 5746 5745 5744 5742 5740 5738 5736 5734 5731 5728 5725 5722 5720 5717 5714 5711 5708 5705 5701 5698 5696 5693 5690 5688 5683 5681 5678 5675 5673 5671 5667 5664 5661 5658 5656 5652 5649 5646 5644 5641 5639 5636 5633 5630
5781 5781 5781 5781 5780 5780 5779 5778 5778 5777 5777 5776 5775 5775 5774 5774 5773 5772 5772 5771 5771 5770 5770 5769 5769 5768 5767 5766 5766 5765 5763 5762 5761 5760 5759 5757 5756 5755 5753 5752 5750 5748 5747 5745 5743 5742 5741 5740 5738 5736 5734 5731 5728 5725 5722 5719 5716 5714 5711 5708 5705 5702 5698 5694 5691 5689 5686 5684 5680 5677 5673 5671 5668 5664 5662 5660 5655 5653 5649 5646 5643 5640 5638 5635 5633 5630 5626 5623
5780 5780 5780 5779 5779 5778 5778 5777 5776 5775 5775 5774 5774 5773 5773 5772 5771 5771 5770 5770 5769 5769 5768 5768 5767 5766 5766 5765 5764 5763 5762 5761 5759 5758 5757 5756 5754 5753 5752 5750 5748 5747 5745 5743 5741 5738 5737 5737 5735 5733 5731 5728 5725 5722 5719 5716 5713 5710 5708 5705 5702 5699 5694 5691 5687 5685 5682 5679 5677 5674 5670 5667 5664 5660 5658 5655 5650 5647 5643 5639 5637 5634 5632 5629 5626 5623 5620 5617
5779 5779 5779 5778 5778 5777 5776 5775 5774 5774 5773 5773 5772 5772 5771 5770 5770 5769 5768 5768 5768 5767 5767 5766 5766 5765 5764 5763 5762 5761 5760 5759 5758 5756 5755 5754 5753 5751 5750 5748 5746 5745 5742 5740 5738 5735 5733 5732 5731 5730 5727 5725 5722 5719 5716 5713 5709 5706 5703 5700 5698 5694 5690 5686 5682 5680 5677 5673 5671 5669 5666 5662 5659 5656 5654 5650 5646 5642 5637 5634 5631 5629 5626 5623 5620 5617 5615 5612
5778 5778 5777 5777 5776 5775 5775 5774 5773 5772 5771 5771 5771 5770 5769 5768 5768 5767 5766 5766 5766 5765 5765 5765 5764 5763 5762 5762 5761 5760 5758 5757 5756 5754 5753 5752 5751 5749 5748 5746 5744 5742 5740 5738 5736 5733 5729 5727 5727 5726 5724 5722 5719 5715 5712 5709 5705 5701 5698 5695 5693 5689 5685 5681 5676 5673 5671 5667 5664 5664 5661 5657 5654 5652 5650 5645 5641 5637 5633 5629 5627 5624 5621 5618 5615 5613 5609 5606
5776 5776 5775 5775 5774 5774 5773 5772 5771 5770 5770 5770 5769 5768 5767 5766 5766 5765 5765 5764 5764 5764 5763 5763 5762 5761 5761 5760 5759 5758 5756 5755 5754 5753 5751 5750 5748 5747 5745 5744 5742 5740 5738 5735 5733 5731 5727 5723 5723 5722 5720 5717 5714 5711 5708 5704 5701 5696 5693 5690 5687 5683 5679 5676 5671 5667 5664 5660 5656 5657 5656 5652 5649 5647 5643 5639 5635 5631 5627 5625 5622 5620 5617 5614 5611 5608 5604 5600
5774 5774 5773 5773 5772 5772 5771 5770 5769 5769 5768 5768 5767 5766 5765 5764 5764 5763 5763 5762 5762 5762 5761 5761 5760 5759 5759 5758 5757 5756 5754 5753 5752 5750 5749 5748 5746 5745 5743 5741 5740 5738 5735 5733 5730 5728 5724 5720 5718 5718 5716 5713 5709 5706 5703 5699 5695 5691 5688 5685 5682 5679 5674 5671 5666 5661 5658 5653 5649 5648 5648 5646 5644 5642 5638 5633 5628 5625 5622 5620 5617 5615 5612 5608 5605 5602 5598 5595
5772 5772 5771 5771 5770 5770 5769 5768 5768 5767 5766 5766 5765 5764 5763 5762 5761 5761 5760 5760 5760 5759 5759 5758 5758 5757 5756 5756 5754 5753 5752 5751 5750 5748 5747 5746 5744 5742 5740 5739 5737 5735 5732 5730 5728 5725 5721 5717 5714 5713 5712 5709 5706 5702 5698 5695 5691 5686 5683 5680 5677 5674 5669 5665 5661 5657 5653 5648 5643 5640 5637 5638 5639 5636 5632 5627 5623 5620 5618 5615 5612 5609 5605 5602 5598 5595 5591 5588
5770 5770 5769 5769 5768 5767 5767 5766 5765 5765 5764 5763 5762 5761 5761 5760 5759 5759 5758 5758 5757 5757 5757 5756 5755 5755 5754 5753 5752 5751 5750 5749 5747 5746 5744 5743 5741 5739 5738 5736 5734 5732 5729 5727 5725 5721 5717 5713 5710 5709 5708 5705 5702 5699 5695 5691 5686 5682 5678 5676 5672 5668 5664 5659 5655 5653 5648 5642 5639 5634 5628 5631 5634 5630 5624 5620 5617 5615 5612 5609 5606 5602 5598 5595 5591 5587 5583 5579
5768 5767 5767 5766 5766 5765 5764 5763 5763 5762 5761 5761 5760 5759 5758 5758 5757 5756 5756 5756 5755 5755 5754 5754 5753 5752 5752 5751 5750 5748 5747 5746 5745 5743 5742 5741 5739 5736 5734 5733 5731 5728 5726 5723 5721 5718 5714 5710 5707 5706 5704 5700 5697 5695 5691 5686 5681 5677 5673 5671 5667 5663 5659 5654 5648 5646 5643 5637 5634 5629 5620 5623 5629 5623 5617 5614 5611 5608 5605 5602 5598 5595 5591 5587 5583 5579 5575 5571
5765 5765 5764 5764 5763 5762 5761 5760 5760 5759 5758 5758 5757 5756 5756 5755 5755 5754 5754 5753 5753 5752 5752 5751 5751 5750 5749 5748 5747 5746 5744 5743 5742 5741 5740 5738 5736 5734 5731 5730 5727 5725 5722 5720 5717 5714 5710 5705 5703 5701 5699 5696 5693 5690 5686 5681 5676 5671 5668 5665 5662 5658 5654 5649 5643 5640 5636 5632 5630 5622 5613 5616 5620 5614 5610 5608 5604 5600 5597 5593 5590 5586 5583 5579 5575 5571 5568 5563
5763 5762 5761 5761 5760 5759 5758 5757 5756 5756 5755 5755 5754 5754 5753 5753 5752 5752 5751 5751 5750 5750 5749 5749 5748 5747 5747 5745 5744 5743 5741 5740 5739 5738 5737 5735 5733 5731 5728 5727 5724 5721 5719 5716 5713 5710 5705 5701 5699 5695 5692 5689 5688 5686 5682 5676 5670 5665 5662 5659 5655 5653 5649 5643 5639 5634 5629 5629 5626 5615 5609 5612 5610 5605 5604 5601 5596 5593 5589 5585 5582 5579 5575 5571 5567 5563 5559 5555
5760 5759 5759 5758 5757 5756 5755 5754 5753 5752 5752 5752 5751 5751 5751 5750 5750 5749 5748 5748 5748 5747 5746 5746 5745 5745 5744 5743 5742 5741 5739 5737 5735 5734 5734 5732 5730 5728 5725 5723 5720 5718 5715 5712 5709 5706 5701 5698 5695 5692 5687 5683 5681 5680 5677 5672 5667 5662 5658 5654 5650 5648 5643 5638 5633 5627 5623 5622 5618 5610 5607 5607 5604 5599 5597 5593 5589 5586 5582 5577 5574 5570 5566 5563 5559 5555 5551 5546
5758 5757 5756 5755 5754 5753 5752 5751 5750 5750 5749 5749 5749 5749 5748 5747 5747 5746 5746 5746 5745 5744 5744 5743 5743 5742 5741 5740 5739 5737 5736 5734 5732 5730 5730 5728 5726 5724 5721 5719 5716 5713 5710 5707 5704 5701 5697 5694 5692 5688 5683 5679 5676 5674 5670 5666 5661 5657 5653 5649 5646 5642 5637 5632 5626 5621 5618 5613 5608 5608 5605 5600 5600 5597 5589 5585 5582 5579 5575 5571 5567 5563 5559 5554 5550 5546 5542 5537
5755 5754 5754 5753 5752 5751 5750 5749 5748 5747 5747 5746 5746 5746 5745 5745 5744 5744 5743 5743 5742 5742 5741 5741 5740 5739 5737 5737 5735 5734 5733 5731 5728 5727 5726 5724 5722 5720 5717 5715 5712 5709 5706 5702 5699 5696 5691 5689 5687 5683 5678 5674 5671 5668 5664 5659 5655 5651 5647 5644 5641 5636 5631 5626 5619 5616 5612 5603 5600 5605 5601 5593 5595 5594 5585 5579 5576 5571 5568 5564 5560 5557 5552 5547 5542 5537 5532 5528
5753 5752 5751 5750 5749 5748 5747 5747 5746 5745 5745 5744 5744 5744 5743 5742 5741 5741 5740 5740 5740 5739 5738 5738 5738 5735 5734 5734 5732 5731 5730 5728 5725 5723 5722 5720 5718 5716 5713 5711 5707 5704 5701 5698 5694 5691 5686 5683 5682 5678 5673 5669 5665 5662 5658 5653 5649 5645 5641 5639 5636 5631 5625 5620 5615 5610 5605 5597 5595 5598 5594 5588 5588 5586 5579 5575 5570 5565 5561 5556 5552 5548 5543 5538 5533 5528 5524 5519
5750 5749 5748 5748 5747 5746 5745 5744 5744 5743 5742 5742 5741 5741 5740 5739 5738 5738 5738 5737 5737 5736 5736 5735 5734 5732 5731 5731 5729 5728 5726 5723 5721 5720 5718 5716 5714 5711 5709 5706 5703 5700 5697 5693 5689 5685 5680 5677 5675 5671 5667 5664 5660 5656 5651 5646 5642 5638 5636 5634 5630 5625 5619 5614 5610 5605 5599 5593 5591 5589 5585 5584 5582 5576 5571 5568 5563 5558 5553 5548 5543 5539 5533 5528 5524 5519 5514 5509
5747 5746 5746 5745 5744 5743 5742 5742 5741 5740 5740 5739 5738 5738 5737 5736 5736 5735 5735 5734 5734 5733 5733 5732 5730 5729 5728 5727 5726 5725 5722 5719 5717 5716 5714 5711 5709 5707 5704 5701 5698 5695 5691 5688 5683 5679 5674 5671 5668 5664 5659 5657 5656 5651 5645 5641 5636 5632 5631 5629 5624 5618 5613 5608 5604 5599 5593 5589 5587 5582 5577 5577 5575 5569 5564 5561 5555 5550 5545 5539 5535 5530 5523 5518 5514 5510 5504 5498
5744 5744 5743 5742 5742 5741 5740 5739 5738 5738 5737 5736 5735 5735 5735 5734 5733 5732 5732 5731 5731 5730 5729 5728 5727 5726 5725 5723 5722 5720 5718 5715 5714 5712 5709 5707 5705 5702 5699 5696 5693 5689 5686 5682 5678 5674 5669 5664 5661 5657 5651 5650 5649 5644 5639 5635 5629 5626 5627 5624 5618 5613 5608 5603 5598 5594 5589 5584 5580 5576 5572 5569 5566 5561 5558 5554 5548 5543 5537 5530 5526 5522 5516 5508 5503 5499 5494 5488
5741 5741 5740 5739 5739 5738 5737 5736 5735 5735 5734 5733 5733 5732 5732 5731 5730 5730 5729 5728 5728 5727 5726 5724 5723 5722 5721 5720 5718 5716 5714 5712 5710 5707 5705 5702 5700 5697 5694 5691 5688 5684 5680 5676 5672 5668 5664 5658 5654 5649 5643 5643 5642 5637 5633 5628 5622 5620 5621 5617 5612 5608 5602 5597 5593 5589 5584 5579 5574 5570 5566 5562 5558 5554 5550 5547 5542 5536 5530 5523 5517 5512 5508 5502 5494 5488 5483 5478